Regional Weather Roundup
Issued by NWS Newport/Morehead, NC

Current Version | Previous Version | Text Only | Print | Product List | Glossary On
Versions: 1 2 3 4 5 6 7 8 9 10 11 12 13 14 15 16 17 18 19 20 21 22 23 24 25 26 27 28 29 30 31 32 33 34 35 36 37 38 39 40 41 42 43 44 45 46 47 48 49 50
000 ASUS42 KMHX 220622 RWRMHX WEATHER ROUNDUP FOR EASTERN NORTH CAROLINA NATIONAL WEATHER SERVICE NEWPORT/MOREHEAD CITY NC 200 AM EDT FRI AUG 22 2014 NOTE: "FAIR" INDICATES FEW OR NO CLOUDS BELOW 12,000 FEET WITH NO SIGNIFICANT WEATHER AND/OR OBSTRUCTIONS TO VISIBILITY NCZ015>017-031-032-045>047-102-103-220700- NORTH COAST CITY SKY/WX TMP DP RH WIND PRES REMARKS EDENTON MOCLDY 79 77 94 W5 29.99F ELIZABETH CITY FAIR 75 75 100 SW3 29.99S FOG KITTY HAWK FAIR 79 76 90 CALM 29.97F MANTEO FAIR 79 75 89 CALM 29.98F $$ NCZ045>047-081-094-103-104-220700- CENTRAL COAST CITY SKY/WX TMP DP RH WIND PRES REMARKS FRISCO FAIR 78 78 100 W6 30.00S SWANQUARTER N/A 81 N/A N/A SW3 29.97R $$ NCZ095-097-098-100-101-220700- SOUTHERN COAST CITY SKY/WX TMP DP RH WIND PRES REMARKS BEAUFORT FAIR 81 77 88 SW5 30.01S CEDAR ISLAND N/A 79 N/A N/A SW3 30.03S JACKSONVILLE FAIR 77 74 90 W5 30.01S NEWPORT NOT AVBL PINEY ISLAND FAIR 78 77 96 SW5 30.00S FOG WILMINGTON FAIR 77 74 90 CALM 30.02F $$ NCZ011>013-027>030-043-044-078>080-089-090>093-098-220700- COASTAL PLAIN CITY SKY/WX TMP DP RH WIND PRES REMARKS AHOSKIE FAIR 73 71 95 CALM 30.00F CLINTON FAIR 74 73 99 CALM 30.02F ELIZABETHTOWN FAIR 78 75 90 CALM 30.03S GOLDSBORO FAIR 78 77 98 CALM 30.00F GREENVILLE FAIR 77 73 88 CALM 30.03S HAVELOCK FAIR 77 74 90 SW5 30.02S KENANSVILLE FAIR 74 72 93 CALM 30.03F KINSTON FAIR 77 74 90 CALM 30.02F NEW BERN FAIR 79 74 84 W3 30.01F RICHLANDS FAIR 75 72 88 CALM 30.02S ROANOKE RAPIDS NOT AVBL ROCKY MOUNT FAIR 74 73 97 CALM 30.01F FOG WASHINGTON MOCLDY 77 74 91 CALM 30.01S WHITEVILLE FAIR 77 74 90 CALM 30.03S $$ AMZ130-135-150-152-154-156-158-170-250-252-270-ANZ085-086-088-633-658-670-220700- MARINE OBSERVATIONS STATION/POSITION TIME TEMP WIND PRES WAVE SWELL AIR SEA DIR/SP/G HT/PER HT/PER (UTC) (F) (DEG/KT/KT) (MB) (FT/S) (FT/S) CHESAPEAKE LIGHT 0600 80 200/ 12/ 12 1015.3 BUOY 44014 0600 78 78 190/ 6/ 6 1014.6 2/ 6 2/ 6 DUCK 0600 81 78 230/ 6/ 7 1014.6 2E DUCK 0600 N/A 2/ 7 OREGON INLET 0600 82 83 230/ 6/ 6 1015.1 BUOY 44095 0600 80 N/A 2/ 8 20E OREGON INLET NOT AVBL HATTERAS CG 0600 80 82 230/ 5/ 7 1016.1 DIAMOND BUOY 0600 81 220/ 8/ 10 1015.6 2/ 8 2/ 8 CAPE LOOKOUT 0600 82 250/ 8/ 10 1016.0 BEAUFORT LAB 0600 81 83 250/ 3/ 5 1015.8 30 SE NEW RIVER 0600 82 83 260/ 10/ 12 1015.7 2/ 5 2/10 5 SE WRIGHTSVILL 0600 78 83 260/ 8/ 10 N/A BUOY 41002 0526 81 82 240/ 10/ 12 1018.2 2/ 9 2/ 9 BUOY 41004 0600 84 85 230/ 10/ 12 1016.6 2/ 8 2/ 8 $$

USA.gov is the U.S. government's official web portal to all federal, state and local government web resources and services.